Weather History for Butte, MT

Change the Weather History Date:

Friday, November 4, 2011

  Actual Average Record
Temperature  
Mean Temperature 34 °F 34 °F  
Max Temperature 51 °F 46 °F 66 °F (1980)
Min Temperature 17 °F 21 °F -11 °F (1973)
Degree Days  
Heating Degree Days 31 31  
Month to date heating degree days 148 122  
Since 1 July heating degree days 1253 1493  
Cooling Degree Days 0 0  
Month to date cooling degree days 0 0  
Year to date cooling degree days 48 81  
Moisture  
Dew Point 17 °F    
Average Humidity 50    
Maximum Humidity 78    
Minimum Humidity 21    
Precipitation  
Precipitation 0.01 in 0.02 in 0.55 in (1919)
Month to date precipitation 0.01 0.08  
Year to date precipitation 11.30 11.74  
Sea Level Pressure  
Sea Level Pressure 29.61 in    
Wind  
Wind Speed 6 mph (West)    
Max Wind Speed 22 mph    
Max Gust Speed 31 mph    
Visibility 8 miles    
Events Snow    
T = Trace of Precipitation, MM = Missing Value Source: NWS Daily Summary

Daily Weather History Graph

Daily Weather History Graph

Search for Another Location

Airport:

Trip Planner

Search our weather history database for the weather conditions in past years. The results will help you decide how hot, cold, wet, or windy it might be!

Date:

Astronomy

Nov. 04, 2011 Rise Set
Actual Time 8:14 AM MDT 6:12 PM MDT
Civil Twilight 7:42 AM MDT 6:43 PM MDT
Nautical Twilight 7:07 AM MDT 7:18 PM MDT
Astronomical Twilight 6:32 AM MDT 7:53 PM MDT
Moon 3:20 PM MDT (11/4) 2:12 AM MDT (11/4)
Length of Visible Light 11h 00m
Length of Day
9h 57m
Waxing Gibbous, 70% of the Moon is Illuminated
Nov 4
Waxing Gibbous
Nov 10
Full
Nov 18
Last Quarter
Nov 24
New
Dec 2
First Quarter

Hourly Weather History & Observations

Time (MDT) Temp. Windchill Dew Point Humidity Pressure Visibility Wind Dir Wind Speed Gust Speed Precip Events Conditions
12:53 AM 25.0 °F - 14.0 °F 63% 29.70 in 10.0 mi Calm Calm - N/A   Clear
1:53 AM 26.1 °F 20.5 °F 14.0 °F 60% 29.66 in 10.0 mi NE 4.6 mph - N/A   Clear
2:53 AM 27.0 °F 23.0 °F 12.9 °F 56% 29.62 in 10.0 mi NW 3.5 mph - N/A   Clear
3:53 AM 26.1 °F - 14.0 °F 60% 29.62 in 10.0 mi Calm Calm - N/A   Clear
4:53 AM 24.1 °F 17.0 °F 12.9 °F 62% 29.62 in 10.0 mi SE 5.8 mph - N/A   Clear
5:53 AM 23.0 °F - 10.9 °F 60% 29.62 in 10.0 mi Calm Calm - N/A   Clear
6:53 AM 19.9 °F - 10.9 °F 68% 29.63 in 10.0 mi Calm Calm - N/A   Clear
7:53 AM 18.0 °F - 10.0 °F 71% 29.68 in 10.0 mi Calm Calm - N/A   Clear
8:53 AM 19.9 °F - 12.0 °F 71% 29.68 in 10.0 mi Calm Calm - N/A   Clear
9:53 AM 26.1 °F - 14.0 °F 60% 29.67 in 10.0 mi Calm Calm - N/A   Clear
10:53 AM 32.0 °F - 16.0 °F 52% 29.63 in 10.0 mi Calm Calm - N/A   Clear
11:53 AM 45.0 °F 40.6 °F 15.1 °F 30% 29.56 in 10.0 mi South 8.1 mph - N/A   Clear
12:53 PM 46.4 °F 40.1 °F 12.2 °F 25% 29.53 in 10.0 mi SSW 15.0 mph 25.3 mph N/A   Clear
1:53 PM 48.9 °F - 12.9 °F 24% 29.50 in 10.0 mi South 16.1 mph - N/A   Clear
2:53 PM 50.0 °F - 12.2 °F 22% 29.49 in 10.0 mi South 19.6 mph - N/A   Clear
3:53 PM 48.0 °F - 14.0 °F 26% 29.50 in 10.0 mi SSW 19.6 mph - N/A   Partly Cloudy
4:53 PM 46.9 °F - 17.1 °F 30% 29.52 in 10.0 mi South 8.1 mph 19.6 mph N/A   Overcast
5:53 PM 39.9 °F 35.8 °F 18.0 °F 41% 29.56 in 10.0 mi NNW 5.8 mph - N/A   Partly Cloudy
6:53 PM 36.0 °F - 18.0 °F 48% 29.62 in 10.0 mi Calm Calm - N/A   Scattered Clouds
7:53 PM 35.1 °F 32.2 °F 18.0 °F 50% 29.64 in 10.0 mi Variable 3.5 mph - N/A   Overcast
8:53 PM 33.1 °F 27.7 °F 19.9 °F 59% 29.68 in 10.0 mi WNW 5.8 mph - N/A   Overcast
9:53 PM 30.9 °F 22.2 °F 23.0 °F 72% 29.67 in 10.0 mi West 10.4 mph - N/A   Overcast
10:53 PM 30.0 °F 21.7 °F 24.1 °F 79% 29.67 in 10.0 mi WNW 9.2 mph - N/A   Overcast
11:14 PM 30.2 °F 21.3 °F 24.8 °F 80% 29.60 in 2.5 mi WNW 10.4 mph - 0.00 in Snow Light Snow
11:26 PM 28.4 °F 19.7 °F 24.8 °F 86% 29.61 in 1.2 mi WNW 9.2 mph - 0.00 in Snow Light Snow
11:36 PM 28.4 °F 20.4 °F 24.8 °F 86% 29.60 in 1.0 mi WNW 8.1 mph - 0.00 in Snow Light Snow
11:48 PM 28.4 °F 20.4 °F 26.6 °F 93% 29.59 in 0.8 mi WNW 8.1 mph - 0.00 in Snow Light Snow
11:53 PM 28.9 °F 21.1 °F 26.1 °F 89% 29.61 in 1.0 mi WNW 8.1 mph - 0.01 in Snow Light Snow